Weather History for Alturas, CA

Change the Weather History Date:

Wednesday, November 7, 2012

  Actual Average Record
Temperature  
Mean Temperature 7 °C 4 °C  
Max Temperature 18 °C 12 °C 23 °C (1949)
Min Temperature -4 °C -4 °C -12 °C (2001)
Degree Days  
Heating Degree Days 20 26  
Month to date heating degree days 137 174  
Since 1 July heating degree days 794 1117  
Cooling Degree Days 0 0  
Month to date cooling degree days 0 0  
Year to date cooling degree days 224 156  
Moisture  
Dew Point 0 °C    
Average Humidity 64    
Maximum Humidity 92    
Minimum Humidity 36    
Precipitation  
Precipitation 0.00 mm 1.52 mm 2.36 mm (2005)
Month to date precipitation T 0.44  
Year to date precipitation 6.25 11.11  
Sea Level Pressure  
Sea Level Pressure 1015 hPa    
Wind  
Wind Speed 6 km/h (West)    
Max Wind Speed 32 km/h    
Max Gust Speed 40 km/h    
Visibility 16 kilometers    
Events      
T = Trace of Precipitation, MM = Missing Value Source: NWS Daily Summary

Daily Weather History Graph

Daily Weather History Graph

Search for Another Location

Airport:

Trip Planner

Search our weather history database for the weather conditions in past years. The results will help you decide how hot, cold, wet, or windy it might be!

Date:

Astronomy

Nov. 07, 2012 Rise Set
Actual Time 6:41 AM PST 4:49 PM PST
Civil Twilight 6:12 AM PST 5:18 PM PST
Nautical Twilight 5:39 AM PST 5:51 PM PST
Astronomical Twilight 5:07 AM PST 6:24 PM PST
Moon No Moon Rise 1:05 PM PST (11/7)
Length of Visible Light 11h 06m
Length of Day
10h 07m
Last Quarter, 42% of the Moon is Illuminated
Nov 7
Last Quarter
Nov 13
New
Nov 20
First Quarter
Nov 28
Full
Dec 6
Last Quarter

Hourly Weather History & Observations

Time (PST) Temp. Windchill Dew Point Humidity Pressure Visibility Wind Dir Wind Speed Gust Speed Precip Events Conditions
12:55 AM -0.6 °C - -3.3 °C 82% 1019.1 hPa 16.1 km Calm Calm - N/A   Clear
1:55 AM -1.1 °C - -3.3 °C 85% 1019.1 hPa 16.1 km Calm Calm - N/A   Clear
2:55 AM -2.8 °C - -4.4 °C 89% 1019.0 hPa 16.1 km Calm Calm - N/A   Clear
3:55 AM -1.1 °C - -2.8 °C 88% 1018.3 hPa 16.1 km Calm Calm - N/A   Clear
4:55 AM -3.3 °C - -5.0 °C 88% 1019.1 hPa 16.1 km Calm Calm - N/A   Clear
5:55 AM -4.4 °C - -6.1 °C 88% 1019.5 hPa 16.1 km Calm Calm - N/A   Clear
6:55 AM -3.9 °C -6.3 °C -5.0 °C 92% 1020.1 hPa 16.1 km West 5.6 km/h / 1.5 m/s - N/A   Clear
7:55 AM 2.2 °C - -0.6 °C 82% 1019.2 hPa 16.1 km Calm Calm - N/A   Clear
8:55 AM 8.3 °C - 0.6 °C 59% 1018.5 hPa 16.1 km Calm Calm - N/A   Clear
9:55 AM 12.8 °C - 0.6 °C 43% 1017.8 hPa 16.1 km South 5.6 km/h / 1.5 m/s - N/A   Clear
10:55 AM 15.6 °C - 2.2 °C 41% 1016.5 hPa 16.1 km Variable 9.3 km/h / 2.6 m/s - N/A   Clear
11:55 AM 17.2 °C - 1.7 °C 35% 1014.8 hPa 16.1 km SW 14.8 km/h / 4.1 m/s - N/A   Clear
12:55 PM 17.8 °C - 2.8 °C 37% 1014.2 hPa 16.1 km West 16.7 km/h / 4.6 m/s 29.6 km/h / 8.2 m/s N/A   Clear
1:55 PM 17.2 °C - 2.8 °C 38% 1013.8 hPa 16.1 km West 18.5 km/h / 5.1 m/s - N/A   Clear
2:55 PM 17.8 °C - 2.8 °C 37% 1013.6 hPa 16.1 km West 25.9 km/h / 7.2 m/s 37.0 km/h / 10.3 m/s N/A   Clear
3:55 PM 15.6 °C - 2.8 °C 42% 1013.5 hPa 16.1 km WSW 18.5 km/h / 5.1 m/s - N/A   Clear
4:55 PM 13.3 °C - 2.8 °C 49% 1014.2 hPa 16.1 km SW 9.3 km/h / 2.6 m/s - N/A   Clear
5:55 PM 10.0 °C - 2.8 °C 61% 1014.5 hPa 16.1 km NW 5.6 km/h / 1.5 m/s - N/A   Clear
6:55 PM 11.1 °C - 3.3 °C 59% 1013.5 hPa 16.1 km West 18.5 km/h / 5.1 m/s - N/A   Clear
7:55 PM 8.9 °C - 2.8 °C 66% 1012.4 hPa 16.1 km Calm Calm - N/A   Clear
8:55 PM 8.9 °C - 3.3 °C 68% 1010.7 hPa 16.1 km Calm Calm - N/A   Partly Cloudy
9:55 PM 6.7 °C - 2.8 °C 76% 1009.4 hPa 16.1 km Calm Calm - N/A   Mostly Cloudy
10:55 PM 5.0 °C - 2.2 °C 82% 1008.6 hPa 16.1 km Calm Calm - N/A   Mostly Cloudy
11:55 PM 3.3 °C - 0.6 °C 83% 1007.7 hPa 12.9 km Calm Calm - N/A   Scattered Clouds